CW6225 Weather Reports


time (UTC)temp
C
wind
direction
speed
KPH
gust
KPH
rain 1hr
cm
rain 24hr
cm
rain mn
cm
humidity
%
barometer
mb
20260503224600 17 127 6.4 14.5 0.00 0.00 0.00 67 1011.8
20260503223054 20 134 6.4 11.3 0.00 0.00 0.00 61 1012.1
20260503221601 21 168 1.6 6.4 0.00 0.00 0.00 54 1012.1
20260503220055 21 180 1.6 4.8 0.00 0.00 0.00 56 1012.3
20260503214554 21 192 1.6 4.8 0.00 0.00 0.00 54 1012.4
20260503213052 21 204 0.0 4.8 0.00 0.00 0.00 55 1012.5
20260503211552 20 202 0.0 9.7 0.00 0.00 0.00 60 1012.5
20260503210052 18 0 1.6 6.4 0.00 0.00 0.00 65 1012.8
20260503204616 17 169 1.6 4.8 0.00 0.00 0.00 68 1013.0
20260503203100 17 180 1.6 6.4 0.00 0.00 0.00 70 1013.1
20260503201552 16 165 1.6 6.4 0.00 0.00 0.00 74 1013.3
20260503200051 16 186 1.6 6.4 0.00 0.00 0.00 72 1013.5
20260503194550 16 180 1.6 8.0 0.00 0.00 0.00 73 1013.6
20260503193056 15 146 1.6 6.4 0.00 0.00 0.00 75 1013.7
20260503191609 15 169 1.6 8.0 0.00 0.00 0.00 74 1014.0
20260503190056 15 180 3.2 9.7 0.00 0.00 0.00 74 1014.1
20260503184551 17 172 1.6 6.4 0.00 0.00 0.00 70 1014.2
20260503183050 16 0 1.6 11.3 0.00 0.00 0.00 71 1014.5
20260503181552 17 143 4.8 11.3 0.00 0.00 0.00 70 1014.5
20260503180058 18 215 1.6 6.4 0.00 0.00 0.00 65 1014.6
20260503174555 18 340 1.6 8.0 0.00 0.00 0.00 62 1014.7
20260503173053 18 352 6.4 9.7 0.00 0.00 0.00 62 1014.6
20260503171551 18 5 6.4 12.9 0.00 0.00 0.00 64 1014.6
20260503160106 14 301 0.0 3.2 0.00 0.00 0.00 79 1015.3
20260503081552 13 0 0.0 0.0 0.00 0.00 0.00 76 1014.7
20260503080103 13 0 0.0 0.0 0.00 0.00 0.00 75 1014.6
20260503071610 15 0 0.0 0.0 0.00 0.00 0.00 72 1014.5
20260503054607 15 0 0.0 3.2 0.00 0.00 0.00 71 1014.3
20260503053049 15 0 0.0 3.2 0.00 0.00 0.00 72 1014.3
20260503051550 15 355 0.0 6.4 0.00 0.00 0.00 73 1014.3
20260503050051 15 316 1.6 3.2 0.00 0.00 0.00 73 1014.3
20260503044552 15 0 0.0 3.2 0.00 0.00 0.00 73 1014.3
20260503043055 15 0 0.0 3.2 0.00 0.00 0.00 73 1014.2
20260503041549 15 325 0.0 3.2 0.00 0.00 0.00 73 1014.1
20260503040055 15 323 0.0 3.2 0.00 0.00 0.00 73 1014.1
20260503034549 15 0 0.0 4.8 0.00 0.00 0.00 73 1013.9
20260503033058 15 0 1.6 3.2 0.00 0.00 0.00 72 1013.8
20260503031553 16 0 0.0 4.8 0.00 0.00 0.00 71 1013.6
20260503030058 16 0 0.0 3.2 0.00 0.00 0.00 71 1013.6
20260503024549 17 0 0.0 0.0 0.00 0.00 0.00 67 1013.6
20260503023100 17 0 0.0 1.6 0.00 0.00 0.00 68 1013.7
20260503021554 17 0 0.0 1.6 0.00 0.00 0.00 68 1013.7
20260503020053 17 0 0.0 3.2 0.00 0.00 0.00 70 1013.8
20260503014602 17 0 0.0 6.4 0.00 0.00 0.00 69 1013.7
20260503013054 17 240 0.0 4.8 0.00 0.00 0.00 69 1013.8
20260503011553 16 0 0.0 8.0 0.00 0.00 0.00 71 1013.9
20260503010055 16 196 1.6 4.8 0.00 0.00 0.00 70 1014.1
20260503004613 17 0 0.0 6.4 0.00 0.00 0.00 70 1014.2
20260503003059 16 173 0.0 4.8 0.00 0.00 0.00 71 1014.1
20260503001555 16 166 0.0 6.4 0.00 0.00 0.00 71 1014.4
20260503000053 16 221 0.0 4.8 0.00 0.00 0.00 73 1014.5
20260502234558 16 220 1.6 4.8 0.00 0.00 0.00 74 1014.7
20260502233053 15 0 1.6 6.4 0.00 0.00 0.00 75 1015.0
20260502231603 15 0 1.6 8.0 0.00 0.00 0.00 77 1015.1
20260502230057 15 180 1.6 6.4 0.00 0.00 0.00 77 1015.3